When you browse on this site, cookies collect data to enhance your experience and personalize the content and advertising you see.
Visit our Privacy Policy to learn more. By continuing to use the site, you agree to this use of cookies and data.
  • en France
  • Liste des pays
  • À 7 jours
  • Température de l'eau
  • Carte satellitaire
  • Carte météo
  • Widgets météo
  • user-avatar
    Se connecter

    Météo par heure à Tyrgowishte

    Ce jour, 25 Mai, Samedi

    Heure Température Précipitation Vent Pression Humidité
    00:00 +12°C° 0 mm 5 m/s 739 mmHg 86%
    01:00 +12°C° 0 mm 5 m/s 739 mmHg 88%
    02:00 +11°C° 0 mm 4 m/s 739 mmHg 90%
    03:00 +11°C° 0 mm 4 m/s 739 mmHg 89%
    04:00 +11°C° 0 mm 4 m/s 739 mmHg 89%
    05:00 +11°C° 0 mm 4 m/s 739 mmHg 89%
    06:00 +13°C° 0 mm 5 m/s 740 mmHg 85%
    07:00 +14°C° 0 mm 6 m/s 740 mmHg 81%
    08:00 +16°C° 0 mm 7 m/s 740 mmHg 76%
    09:00 +17°C° 0 mm 6 m/s 740 mmHg 74%
    10:00 +19°C° 0 mm 6 m/s 740 mmHg 71%
    11:00 +20°C° 0 mm 5 m/s 740 mmHg 69%
    12:00 +21°C° 0.3 mm 6 m/s 740 mmHg 68%
    13:00 +21°C° 0.3 mm 6 m/s 740 mmHg 67%
    14:00 +22°C° 0.3 mm 6 m/s 740 mmHg 66%
    15:00 +22°C° 0.1 mm 5 m/s 740 mmHg 68%
    16:00 +22°C° 0.1 mm 5 m/s 740 mmHg 69%
    17:00 +21°C° 0.1 mm 5 m/s 740 mmHg 70%
    18:00 +20°C° 0 mm 4 m/s 740 mmHg 76%
    19:00 +18°C° 0 mm 4 m/s 740 mmHg 81%
    20:00 +17°C° 0 mm 3 m/s 740 mmHg 87%
    21:00 +16°C° 0 mm 3 m/s 741 mmHg 87%
    22:00 +16°C° 0 mm 3 m/s 741 mmHg 87%
    23:00 +14°C° 0 mm 3 m/s 742 mmHg 87%

    Demain, 26 Mai, Dimanche

    Heure Température Précipitation Vent Pression Humidité
    00:00 +14°C° 0 mm 3 m/s 742 mmHg 86%
    01:00 +14°C° 0 mm 3 m/s 742 mmHg 85%
    02:00 +15°C° 0 mm 2 m/s 742 mmHg 85%
    03:00 +14°C° 0 mm 2 m/s 742 mmHg 86%
    04:00 +14°C° 0 mm 2 m/s 743 mmHg 86%
    05:00 +14°C° 0 mm 2 m/s 743 mmHg 87%
    06:00 +16°C° 0 mm 2 m/s 743 mmHg 81%
    07:00 +18°C° 0 mm 3 m/s 743 mmHg 75%
    08:00 +20°C° 0 mm 3 m/s 744 mmHg 69%
    09:00 +22°C° 0 mm 3 m/s 744 mmHg 65%
    10:00 +24°C° 0 mm 3 m/s 744 mmHg 61%
    11:00 +25°C° 0 mm 2 m/s 744 mmHg 57%
    12:00 +26°C° 0 mm 2 m/s 744 mmHg 55%
    13:00 +26°C° 0 mm 2 m/s 744 mmHg 53%
    14:00 +27°C° 0 mm 2 m/s 744 mmHg 51%
    15:00 +27°C° 0 mm 2 m/s 744 mmHg 51%
    16:00 +27°C° 0 mm 1 m/s 743 mmHg 52%
    17:00 +27°C° 0 mm 1 m/s 743 mmHg 52%
    18:00 +25°C° 0 mm 1 m/s 743 mmHg 59%
    19:00 +23°C° 0 mm 1 m/s 743 mmHg 66%
    20:00 +18°C° 0 mm 0 m/s 743 mmHg 73%
    21:00 +20°C° 0 mm 1 m/s 744 mmHg 76%
    22:00 +19°C° 0 mm 1 m/s 744 mmHg 79%
    23:00 +17°C° 0 mm 2 m/s 744 mmHg 82%

    Après-demain, 27 Mai, Lundi

    Heure Température Précipitation Vent Pression Humidité
    00:00 +17°C° 0 mm 2 m/s 744 mmHg 82%
    01:00 +16°C° 0 mm 2 m/s 744 mmHg 83%
    02:00 +16°C° 0 mm 2 m/s 744 mmHg 84%
    03:00 +16°C° 0 mm 1 m/s 744 mmHg 84%
    04:00 +16°C° 0 mm 1 m/s 744 mmHg 85%
    05:00 +15°C° 0 mm 1 m/s 744 mmHg 86%
    06:00 +18°C° 0 mm 2 m/s 744 mmHg 80%
    07:00 +20°C° 0 mm 2 m/s 744 mmHg 75%
    08:00 +23°C° 0 mm 2 m/s 745 mmHg 69%
    09:00 +25°C° 0 mm 3 m/s 745 mmHg 64%
    10:00 +26°C° 0 mm 3 m/s 745 mmHg 60%
    11:00 +27°C° 0 mm 4 m/s 745 mmHg 55%
    12:00 +28°C° 0 mm 4 m/s 744 mmHg 54%
    13:00 +28°C° 0 mm 4 m/s 744 mmHg 53%
    14:00 +28°C° 0 mm 5 m/s 744 mmHg 53%
    15:00 +28°C° 0 mm 5 m/s 743 mmHg 55%
    16:00 +27°C° 0 mm 5 m/s 743 mmHg 57%
    17:00 +26°C° 0 mm 5 m/s 743 mmHg 59%
    18:00 +23°C° 0 mm 4 m/s 743 mmHg 66%
    19:00 +21°C° 0 mm 4 m/s 743 mmHg 74%
    20:00 +18°C° 0 mm 3 m/s 743 mmHg 81%
    21:00 +17°C° 0 mm 3 m/s 743 mmHg 84%
    22:00 +16°C° 0 mm 3 m/s 743 mmHg 86%
    23:00 +14°C° 0 mm 3 m/s 743 mmHg 89%

    28 Mai, Mardi

    Heure Température Précipitation Vent Pression Humidité
    00:00 +14°C° 0 mm 3 m/s 743 mmHg 90%
    01:00 +13°C° 0 mm 3 m/s 743 mmHg 91%
    02:00 +14°C° 0 mm 2 m/s 742 mmHg 92%
    03:00 +13°C° 0 mm 3 m/s 742 mmHg 91%
    04:00 +13°C° 0 mm 3 m/s 742 mmHg 90%
    05:00 +13°C° 0 mm 3 m/s 741 mmHg 90%
    06:00 +16°C° 0 mm 3 m/s 741 mmHg 82%
    07:00 +18°C° 0 mm 4 m/s 741 mmHg 74%
    08:00 +21°C° 0 mm 4 m/s 741 mmHg 67%
    09:00 +23°C° 0 mm 4 m/s 741 mmHg 62%
    10:00 +26°C° 0 mm 5 m/s 741 mmHg 58%
    11:00 +28°C° 0 mm 5 m/s 741 mmHg 54%
    12:00 +29°C° 0 mm 6 m/s 740 mmHg 51%
    13:00 +30°C° 0 mm 6 m/s 740 mmHg 48%
    14:00 +32°C° 0 mm 6 m/s 739 mmHg 46%
    15:00 +30°C° 0 mm 6 m/s 739 mmHg 49%
    16:00 +30°C° 0 mm 5 m/s 738 mmHg 52%
    17:00 +29°C° 0 mm 5 m/s 738 mmHg 55%
    18:00 +27°C° 0 mm 5 m/s 738 mmHg 59%
    19:00 +25°C° 0 mm 4 m/s 738 mmHg 63%
    20:00 +21°C° 0 mm 4 m/s 738 mmHg 67%
    21:00 +20°C° 0 mm 4 m/s 738 mmHg 66%
    22:00 +19°C° 0 mm 4 m/s 738 mmHg 65%
    23:00 +18°C° 0 mm 4 m/s 738 mmHg 64%

    29 Mai, Mercredi

    Heure Température Précipitation Vent Pression Humidité
    00:00 +17°C° 0 mm 4 m/s 738 mmHg 66%
    01:00 +17°C° 0 mm 3 m/s 738 mmHg 68%
    02:00 +16°C° 0 mm 2 m/s 738 mmHg 70%
    03:00 +16°C° 0 mm 2 m/s 738 mmHg 71%
    04:00 +16°C° 0 mm 2 m/s 738 mmHg 72%
    05:00 +16°C° 0 mm 2 m/s 738 mmHg 73%
    06:00 +18°C° 0 mm 2 m/s 739 mmHg 69%
    07:00 +21°C° 0 mm 2 m/s 739 mmHg 65%
    08:00 +24°C° 0 mm 2 m/s 739 mmHg 61%
    09:00 +25°C° 0 mm 2 m/s 740 mmHg 57%
    10:00 +27°C° 0 mm 1 m/s 740 mmHg 53%
    11:00 +28°C° 0 mm 1 m/s 740 mmHg 50%
    12:00 +29°C° 0 mm 1 m/s 740 mmHg 48%
    13:00 +29°C° 0 mm 1 m/s 740 mmHg 47%
    14:00 +29°C° 0 mm 1 m/s 739 mmHg 46%
    15:00 +29°C° 0 mm 1 m/s 739 mmHg 49%
    16:00 +29°C° 0 mm 1 m/s 739 mmHg 52%
    17:00 +29°C° 0 mm 1 m/s 739 mmHg 55%
    18:00 +25°C° 0 mm 0 m/s 739 mmHg 58%
    19:00 +24°C° 0 mm 0 m/s 740 mmHg 61%
    20:00 +22°C° 0 mm 0 m/s 740 mmHg 65%
    21:00 +21°C° 0 mm 0 m/s 740 mmHg 69%
    22:00 +20°C° 0 mm 0 m/s 741 mmHg 73%
    23:00 +19°C° 0 mm 0 m/s 741 mmHg 77%

    30 Mai, Jeudi

    Heure Température Précipitation Vent Pression Humidité
    00:00 +21°C° 0.2 mm 1 m/s 741 mmHg 79%
    01:00 +19°C° 0.2 mm 2 m/s 741 mmHg 81%
    02:00 +19°C° 0.2 mm 2 m/s 741 mmHg 83%
    03:00 +18°C° 0 mm 2 m/s 742 mmHg 85%
    04:00 +18°C° 0 mm 2 m/s 742 mmHg 87%
    05:00 +17°C° 0 mm 2 m/s 742 mmHg 89%
    06:00 +19°C° 0 mm 3 m/s 742 mmHg 83%
    07:00 +20°C° 0 mm 3 m/s 742 mmHg 78%
    08:00 +22°C° 0 mm 4 m/s 743 mmHg 73%
    09:00 +23°C° 0 mm 4 m/s 743 mmHg 68%
    10:00 +25°C° 0 mm 4 m/s 743 mmHg 62%
    11:00 +26°C° 0 mm 4 m/s 743 mmHg 57%
    12:00 +27°C° 0 mm 4 m/s 743 mmHg 55%
    13:00 +28°C° 0 mm 3 m/s 743 mmHg 54%
    14:00 +28°C° 0 mm 3 m/s 742 mmHg 53%
    15:00 +28°C° 0.1 mm 3 m/s 742 mmHg 54%
    16:00 +28°C° 0.1 mm 2 m/s 742 mmHg 55%
    17:00 +28°C° 0.1 mm 2 m/s 742 mmHg 57%
    18:00 +26°C° 0.1 mm 1 m/s 742 mmHg 62%
    19:00 +24°C° 0.1 mm 1 m/s 742 mmHg 67%
    20:00 +22°C° 0.1 mm 1 m/s 742 mmHg 73%
    21:00 +22°C° 0.2 mm 1 m/s 742 mmHg 76%
    22:00 +21°C° 0.2 mm 1 m/s 742 mmHg 79%
    23:00 +20°C° 0.2 mm 1 m/s 742 mmHg 82%
    Voir plus